Time,TemperatureF,DewpointF,PressureIn,WindDirection,WindDirectionDegrees,WindSpeedMPH,WindSpeedGustMPH,Humidity,HourlyPrecipIn,Conditions,Clouds,dailyrainin,SoftwareType,DateUTC
2013-02-17 00:00:00,24.0,16.0,29.94,NW,315,6.0,15.0,72,0.00,,,0.00,Rainwise IP-100,2013-02-17 05:00:00,
2013-02-17 00:05:00,24.0,16.0,29.94,WNW,292,5.0,16.0,72,0.00,,,0.00,Rainwise IP-100,2013-02-17 05:05:00,
2013-02-17 00:10:00,24.0,16.0,29.93,NW,315,5.0,19.0,72,0.00,,,0.00,Rainwise IP-100,2013-02-17 05:10:00,
2013-02-17 00:13:00,24.0,16.0,29.93,NNW,337,12.0,15.0,72,0.00,,,0.00,Rainwise IP-100,2013-02-17 05:13:00,
2013-02-17 00:18:00,24.0,16.0,29.93,WNW,292,5.0,15.0,72,0.00,,,0.00,Rainwise IP-100,2013-02-17 05:18:00,
2013-02-17 00:23:00,24.0,16.0,29.92,West,270,1.0,15.0,72,0.00,,,0.00,Rainwise IP-100,2013-02-17 05:23:00,
2013-02-17 00:28:00,24.0,16.0,29.92,WNW,292,4.0,17.0,72,0.00,,,0.00,Rainwise IP-100,2013-02-17 05:28:00,
2013-02-17 00:33:00,24.0,16.0,29.92,NW,315,3.0,15.0,72,0.00,,,0.00,Rainwise IP-100,2013-02-17 05:33:00,
2013-02-17 00:38:00,24.0,16.0,29.91,NNW,337,7.0,12.0,72,0.00,,,0.00,Rainwise IP-100,2013-02-17 05:38:00,
2013-02-17 00:44:00,24.0,16.0,29.91,NNW,337,9.0,16.0,72,0.00,,,0.00,Rainwise IP-100,2013-02-17 05:44:00,
2013-02-17 00:49:00,24.0,16.0,29.90,NW,315,12.0,17.0,72,0.00,,,0.00,Rainwise IP-100,2013-02-17 05:49:00,
2013-02-17 00:54:00,24.0,16.0,29.89,NNW,337,10.0,16.0,73,0.00,,,0.00,Rainwise IP-100,2013-02-17 05:54:00,
2013-02-17 00:59:00,24.0,16.0,29.89,NNW,337,11.0,18.0,73,0.00,,,0.00,Rainwise IP-100,2013-02-17 05:59:00,
2013-02-17 01:05:00,24.0,16.0,29.87,NNW,337,17.0,20.0,73,0.00,,,0.00,Rainwise IP-100,2013-02-17 06:05:00,
2013-02-17 01:07:00,24.0,16.0,29.87,NNW,337,16.0,23.0,73,0.00,,,0.00,Rainwise IP-100,2013-02-17 06:07:00,
2013-02-17 01:12:00,24.0,16.0,29.87,NNW,337,21.0,22.0,73,0.00,,,0.00,Rainwise IP-100,2013-02-17 06:12:00,
2013-02-17 01:17:00,23.0,16.0,29.87,NNW,337,16.0,25.0,73,0.00,,,0.00,Rainwise IP-100,2013-02-17 06:17:00,
2013-02-17 01:22:00,23.0,16.0,29.86,NNW,337,9.0,21.0,73,0.00,,,0.00,Rainwise IP-100,2013-02-17 06:22:00,
2013-02-17 01:27:00,23.0,16.0,29.87,NNW,337,10.0,20.0,73,0.00,,,0.00,Rainwise IP-100,2013-02-17 06:27:00,
2013-02-17 01:32:00,23.0,16.0,29.87,NNW,337,15.0,17.0,73,0.00,,,0.00,Rainwise IP-100,2013-02-17 06:32:00,
2013-02-17 01:37:00,23.0,16.0,29.87,NNW,337,15.0,22.0,73,0.00,,,0.00,Rainwise IP-100,2013-02-17 06:37:00,
2013-02-17 01:42:00,23.0,16.0,29.85,North,360,15.0,18.0,73,0.00,,,0.00,Rainwise IP-100,2013-02-17 06:42:00,
2013-02-17 01:47:00,23.0,16.0,29.84,NNW,337,21.0,22.0,73,0.00,,,0.00,Rainwise IP-100,2013-02-17 06:47:00,
2013-02-17 01:52:00,23.0,16.0,29.83,NW,315,23.0,25.0,73,0.00,,,0.00,Rainwise IP-100,2013-02-17 06:52:00,
2013-02-17 01:57:00,23.0,16.0,29.83,NNW,337,11.0,25.0,73,0.00,,,0.00,Rainwise IP-100,2013-02-17 06:57:00,
2013-02-17 02:02:00,23.0,16.0,29.83,NW,315,8.0,23.0,73,0.00,,,0.00,Rainwise IP-100,2013-02-17 07:02:00,
2013-02-17 02:07:00,23.0,16.0,29.83,NNW,337,15.0,27.0,73,0.00,,,0.00,Rainwise IP-100,2013-02-17 07:07:00,
2013-02-17 02:12:00,22.0,16.0,29.84,NW,315,9.0,25.0,74,0.00,,,0.00,Rainwise IP-100,2013-02-17 07:12:00,
2013-02-17 02:17:00,22.0,16.0,29.84,NNW,337,11.0,16.0,74,0.00,,,0.00,Rainwise IP-100,2013-02-17 07:17:00,
2013-02-17 02:22:00,22.0,16.0,29.83,NNW,337,16.0,25.0,74,0.00,,,0.00,Rainwise IP-100,2013-02-17 07:22:00,
2013-02-17 02:27:00,22.0,16.0,29.83,NNW,337,15.0,21.0,74,0.00,,,0.00,Rainwise IP-100,2013-02-17 07:27:00,
2013-02-17 02:32:00,22.0,16.0,29.83,NNW,337,17.0,20.0,74,0.00,,,0.00,Rainwise IP-100,2013-02-17 07:32:00,
2013-02-17 02:37:00,22.0,16.0,29.82,NNW,337,12.0,20.0,74,0.00,,,0.00,Rainwise IP-100,2013-02-17 07:37:00,
2013-02-17 02:42:00,22.0,16.0,29.82,NNW,337,15.0,22.0,74,0.00,,,0.00,Rainwise IP-100,2013-02-17 07:42:00,
2013-02-17 02:47:00,22.0,16.0,29.82,NNW,337,19.0,26.0,74,0.00,,,0.00,Rainwise IP-100,2013-02-17 07:47:00,
2013-02-17 02:52:00,22.0,16.0,29.81,NW,315,15.0,25.0,74,0.00,,,0.00,Rainwise IP-100,2013-02-17 07:52:00,
2013-02-17 02:57:00,22.0,16.0,29.80,NNW,337,13.0,20.0,74,0.00,,,0.00,Rainwise IP-100,2013-02-17 07:57:00,
2013-02-17 03:02:00,21.0,14.0,29.79,NW,315,10.0,23.0,74,0.00,,,0.00,Rainwise IP-100,2013-02-17 08:02:00,
2013-02-17 03:07:00,21.0,14.0,29.80,NNW,337,15.0,23.0,74,0.00,,,0.00,Rainwise IP-100,2013-02-17 08:07:00,
2013-02-17 03:12:00,21.0,14.0,29.78,North,360,12.0,23.0,74,0.00,,,0.00,Rainwise IP-100,2013-02-17 08:12:00,
2013-02-17 03:17:00,21.0,14.0,29.79,WNW,292,9.0,22.0,74,0.00,,,0.00,Rainwise IP-100,2013-02-17 08:17:00,
2013-02-17 03:22:00,21.0,14.0,29.80,NW,315,7.0,25.0,74,0.00,,,0.00,Rainwise IP-100,2013-02-17 08:22:00,
2013-02-17 03:27:00,21.0,14.0,29.80,NNW,337,16.0,22.0,74,0.00,,,0.00,Rainwise IP-100,2013-02-17 08:27:00,
2013-02-17 03:32:00,20.0,14.0,29.80,NNW,337,20.0,25.0,75,0.00,,,0.00,Rainwise IP-100,2013-02-17 08:32:00,
2013-02-17 03:37:00,20.0,14.0,29.80,NW,315,12.0,23.0,75,0.00,,,0.00,Rainwise IP-100,2013-02-17 08:37:00,
2013-02-17 03:42:00,20.0,14.0,29.79,WNW,292,7.0,21.0,75,0.00,,,0.00,Rainwise IP-100,2013-02-17 08:42:00,
2013-02-17 03:47:00,20.0,14.0,29.78,NNW,337,12.0,18.0,75,0.00,,,0.00,Rainwise IP-100,2013-02-17 08:47:00,
2013-02-17 03:52:00,20.0,14.0,29.77,NW,315,8.0,24.0,75,0.00,,,0.00,Rainwise IP-100,2013-02-17 08:52:00,
2013-02-17 03:57:00,20.0,14.0,29.76,NNW,337,16.0,21.0,75,0.00,,,0.00,Rainwise IP-100,2013-02-17 08:57:00,
2013-02-17 04:02:00,20.0,14.0,29.75,NNW,337,18.0,20.0,75,0.00,,,0.00,Rainwise IP-100,2013-02-17 09:02:00,
2013-02-17 04:07:00,20.0,14.0,29.74,NNW,337,10.0,23.0,75,0.00,,,0.00,Rainwise IP-100,2013-02-17 09:07:00,
2013-02-17 04:12:00,20.0,14.0,29.74,North,360,19.0,22.0,75,0.00,,,0.00,Rainwise IP-100,2013-02-17 09:12:00,
2013-02-17 04:17:00,20.0,14.0,29.74,NW,315,12.0,22.0,75,0.00,,,0.00,Rainwise IP-100,2013-02-17 09:17:00,
2013-02-17 04:22:00,20.0,14.0,29.74,NNW,337,13.0,20.0,75,0.00,,,0.00,Rainwise IP-100,2013-02-17 09:22:00,
2013-02-17 04:27:00,20.0,14.0,29.75,WNW,292,5.0,18.0,75,0.00,,,0.00,Rainwise IP-100,2013-02-17 09:27:00,
2013-02-17 04:32:00,20.0,14.0,29.74,NW,315,5.0,20.0,75,0.00,,,0.00,Rainwise IP-100,2013-02-17 09:32:00,
2013-02-17 04:37:00,20.0,14.0,29.75,NNW,337,13.0,19.0,75,0.00,,,0.00,Rainwise IP-100,2013-02-17 09:37:00,
2013-02-17 04:42:00,20.0,14.0,29.74,NNW,337,15.0,20.0,75,0.00,,,0.00,Rainwise IP-100,2013-02-17 09:42:00,
2013-02-17 04:47:00,20.0,14.0,29.74,WNW,292,6.0,18.0,75,0.00,,,0.00,Rainwise IP-100,2013-02-17 09:47:00,
2013-02-17 04:52:00,20.0,14.0,29.74,WNW,292,13.0,16.0,75,0.00,,,0.00,Rainwise IP-100,2013-02-17 09:52:00,
2013-02-17 04:58:00,20.0,14.0,29.74,NW,315,8.0,16.0,75,0.00,,,0.00,Rainwise IP-100,2013-02-17 09:58:00,
2013-02-17 05:03:00,19.0,14.0,29.73,NW,315,10.0,17.0,75,0.00,,,0.00,Rainwise IP-100,2013-02-17 10:03:00,
2013-02-17 05:08:00,19.0,14.0,29.73,WNW,292,14.0,17.0,75,0.00,,,0.00,Rainwise IP-100,2013-02-17 10:08:00,
2013-02-17 05:13:00,19.0,14.0,29.72,NNW,337,18.0,18.0,75,0.00,,,0.00,Rainwise IP-100,2013-02-17 10:13:00,
2013-02-17 05:18:00,19.0,14.0,29.71,NNW,337,12.0,20.0,75,0.00,,,0.00,Rainwise IP-100,2013-02-17 10:18:00,
2013-02-17 05:23:00,19.0,14.0,29.70,NW,315,13.0,20.0,75,0.00,,,0.00,Rainwise IP-100,2013-02-17 10:23:00,
2013-02-17 05:28:00,19.0,14.0,29.69,NW,315,15.0,20.0,75,0.00,,,0.00,Rainwise IP-100,2013-02-17 10:28:00,
2013-02-17 05:33:00,19.0,14.0,29.68,NW,315,8.0,23.0,75,0.00,,,0.00,Rainwise IP-100,2013-02-17 10:33:00,
2013-02-17 05:38:00,19.0,14.0,29.67,NNW,337,12.0,21.0,75,0.00,,,0.00,Rainwise IP-100,2013-02-17 10:38:00,
2013-02-17 05:43:00,19.0,14.0,29.67,NNW,337,6.0,19.0,75,0.00,,,0.00,Rainwise IP-100,2013-02-17 10:43:00,
2013-02-17 05:48:00,19.0,14.0,29.67,WNW,292,7.0,18.0,75,0.00,,,0.00,Rainwise IP-100,2013-02-17 10:48:00,
2013-02-17 05:53:00,19.0,14.0,29.68,WNW,292,7.0,17.0,75,0.00,,,0.00,Rainwise IP-100,2013-02-17 10:53:00,
2013-02-17 05:58:00,19.0,14.0,29.68,WNW,292,6.0,19.0,75,0.00,,,0.00,Rainwise IP-100,2013-02-17 10:58:00,
2013-02-17 06:03:00,19.0,14.0,29.67,NW,315,3.0,17.0,75,0.00,,,0.00,Rainwise IP-100,2013-02-17 11:03:00,
2013-02-17 06:08:00,19.0,14.0,29.66,NW,315,10.0,19.0,75,0.00,,,0.00,Rainwise IP-100,2013-02-17 11:08:00,
2013-02-17 06:13:00,19.0,14.0,29.65,North,360,11.0,21.0,75,0.00,,,0.00,Rainwise IP-100,2013-02-17 11:13:00,
2013-02-17 06:18:00,19.0,14.0,29.64,NNW,337,7.0,17.0,75,0.00,,,0.00,Rainwise IP-100,2013-02-17 11:18:00,
2013-02-17 06:23:00,19.0,14.0,29.64,NNW,337,16.0,17.0,75,0.00,,,0.00,Rainwise IP-100,2013-02-17 11:23:00,
2013-02-17 06:28:00,19.0,14.0,29.64,NNW,337,16.0,20.0,75,0.00,,,0.00,Rainwise IP-100,2013-02-17 11:28:00,
2013-02-17 06:33:00,19.0,14.0,29.64,NNW,337,13.0,17.0,75,0.00,,,0.00,Rainwise IP-100,2013-02-17 11:33:00,
2013-02-17 06:38:00,19.0,14.0,29.65,NW,315,1.0,17.0,75,0.00,,,0.00,Rainwise IP-100,2013-02-17 11:38:00,
2013-02-17 06:43:00,19.0,14.0,29.64,WNW,292,8.0,20.0,75,0.00,,,0.00,Rainwise IP-100,2013-02-17 11:43:00,
2013-02-17 06:49:00,19.0,14.0,29.63,NW,315,12.0,16.0,75,0.00,,,0.00,Rainwise IP-100,2013-02-17 11:49:00,
2013-02-17 06:54:00,19.0,14.0,29.61,NNW,337,6.0,20.0,76,0.00,,,0.00,Rainwise IP-100,2013-02-17 11:54:00,
2013-02-17 06:59:00,19.0,14.0,29.60,NW,315,16.0,21.0,76,0.00,,,0.00,Rainwise IP-100,2013-02-17 11:59:00,
2013-02-17 07:04:00,19.0,14.0,29.60,NNW,337,12.0,26.0,76,0.00,,,0.00,Rainwise IP-100,2013-02-17 12:04:00,
2013-02-17 07:09:00,19.0,14.0,29.60,NW,315,12.0,29.0,76,0.00,,,0.00,Rainwise IP-100,2013-02-17 12:09:00,
2013-02-17 07:14:00,19.0,14.0,29.59,NNW,337,17.0,27.0,76,0.00,,,0.00,Rainwise IP-100,2013-02-17 12:14:00,
2013-02-17 07:26:00,19.0,14.0,29.58,NNW,337,20.0,31.0,76,0.00,,,0.00,Rainwise IP-100,2013-02-17 12:26:00,
2013-02-17 07:31:00,19.0,14.0,29.56,NNW,337,15.0,31.0,76,0.00,,,0.00,Rainwise IP-100,2013-02-17 12:31:00,
2013-02-17 07:36:00,19.0,14.0,29.57,NNW,337,16.0,26.0,76,0.00,,,0.00,Rainwise IP-100,2013-02-17 12:36:00,
2013-02-17 07:50:00,19.0,14.0,29.54,NW,315,14.0,28.0,76,0.00,,,0.00,Rainwise IP-100,2013-02-17 12:50:00,
2013-02-17 07:55:00,19.0,14.0,29.55,NW,315,10.0,32.0,76,0.00,,,0.00,Rainwise IP-100,2013-02-17 12:55:00,
2013-02-17 08:00:00,19.0,14.0,29.55,NW,315,15.0,27.0,76,0.00,,,0.00,Rainwise IP-100,2013-02-17 13:00:00,
2013-02-17 08:05:00,19.0,14.0,29.54,NNW,337,20.0,25.0,76,0.00,,,0.00,Rainwise IP-100,2013-02-17 13:05:00,
2013-02-17 08:10:00,19.0,14.0,29.54,NW,315,10.0,29.0,76,0.00,,,0.00,Rainwise IP-100,2013-02-17 13:10:00,
2013-02-17 08:15:00,19.0,14.0,29.53,North,360,10.0,28.0,76,0.00,,,0.00,Rainwise IP-100,2013-02-17 13:15:00,
2013-02-17 08:20:00,19.0,14.0,29.52,NW,315,16.0,24.0,76,0.00,,,0.00,Rainwise IP-100,2013-02-17 13:20:00,
2013-02-17 08:26:00,19.0,14.0,29.51,NW,315,21.0,26.0,76,0.00,,,0.00,Rainwise IP-100,2013-02-17 13:26:00,
2013-02-17 08:31:00,19.0,14.0,29.50,NNW,337,17.0,22.0,76,0.00,,,0.00,Rainwise IP-100,2013-02-17 13:31:00,
2013-02-17 08:36:00,19.0,14.0,29.50,North,360,22.0,28.0,76,0.00,,,0.00,Rainwise IP-100,2013-02-17 13:36:00,
2013-02-17 08:41:00,19.0,14.0,29.49,NNW,337,17.0,22.0,76,0.00,,,0.00,Rainwise IP-100,2013-02-17 13:41:00,
2013-02-17 08:46:00,19.0,14.0,29.49,NNW,337,28.0,32.0,76,0.00,,,0.00,Rainwise IP-100,2013-02-17 13:46:00,
2013-02-17 08:51:00,19.0,14.0,29.47,NNW,337,15.0,32.0,76,0.00,,,0.00,Rainwise IP-100,2013-02-17 13:51:00,
2013-02-17 08:56:00,19.0,14.0,29.48,NNW,337,17.0,31.0,76,0.00,,,0.00,Rainwise IP-100,2013-02-17 13:56:00,
2013-02-17 09:01:00,19.0,14.0,29.47,NNW,337,19.0,32.0,76,0.00,,,0.00,Rainwise IP-100,2013-02-17 14:01:00,
2013-02-17 09:06:00,19.0,14.0,29.47,NNW,337,27.0,35.0,76,0.00,,,0.00,Rainwise IP-100,2013-02-17 14:06:00,
2013-02-17 09:11:00,19.0,14.0,29.45,NNW,337,23.0,34.0,76,0.00,,,0.00,Rainwise IP-100,2013-02-17 14:11:00,
2013-02-17 09:16:00,19.0,14.0,29.45,NNW,337,22.0,27.0,76,0.00,,,0.00,Rainwise IP-100,2013-02-17 14:16:00,
2013-02-17 09:21:00,20.0,14.0,29.44,NW,315,26.0,33.0,76,0.00,,,0.00,Rainwise IP-100,2013-02-17 14:21:00,
2013-02-17 09:26:00,20.0,14.0,29.44,NNW,337,16.0,34.0,76,0.00,,,0.00,Rainwise IP-100,2013-02-17 14:26:00,
2013-02-17 09:31:00,20.0,14.0,29.44,NW,315,18.0,27.0,76,0.00,,,0.00,Rainwise IP-100,2013-02-17 14:31:00,
2013-02-17 09:36:00,20.0,14.0,29.43,WNW,292,9.0,29.0,76,0.00,,,0.00,Rainwise IP-100,2013-02-17 14:36:00,
2013-02-17 09:42:00,20.0,14.0,29.43,NNW,337,17.0,32.0,76,0.00,,,0.00,Rainwise IP-100,2013-02-17 14:42:00,
2013-02-17 09:47:00,20.0,14.0,29.42,NNW,337,23.0,31.0,76,0.00,,,0.00,Rainwise IP-100,2013-02-17 14:47:00,
2013-02-17 09:52:00,20.0,14.0,29.42,WNW,292,8.0,28.0,76,0.00,,,0.00,Rainwise IP-100,2013-02-17 14:52:00,
2013-02-17 09:57:00,20.0,14.0,29.41,NNW,337,17.0,30.0,75,0.00,,,0.00,Rainwise IP-100,2013-02-17 14:57:00,
2013-02-17 10:02:00,20.0,14.0,29.40,NW,315,15.0,28.0,75,0.00,,,0.00,Rainwise IP-100,2013-02-17 15:02:00,
2013-02-17 10:07:00,20.0,14.0,29.40,NW,315,12.0,31.0,75,0.00,,,0.00,Rainwise IP-100,2013-02-17 15:07:00,
2013-02-17 10:12:00,20.0,14.0,29.39,NW,315,16.0,31.0,75,0.00,,,0.00,Rainwise IP-100,2013-02-17 15:12:00,
2013-02-17 10:17:00,20.0,14.0,29.39,NNW,337,20.0,33.0,75,0.00,,,0.00,Rainwise IP-100,2013-02-17 15:17:00,
2013-02-17 10:22:00,20.0,14.0,29.38,NNW,337,22.0,35.0,75,0.00,,,0.00,Rainwise IP-100,2013-02-17 15:22:00,
2013-02-17 10:27:00,20.0,14.0,29.37,NW,315,12.0,26.0,75,0.00,,,0.00,Rainwise IP-100,2013-02-17 15:27:00,
2013-02-17 10:32:00,20.0,14.0,29.37,NNW,337,26.0,26.0,75,0.00,,,0.00,Rainwise IP-100,2013-02-17 15:32:00,
2013-02-17 10:37:00,20.0,14.0,29.37,WNW,292,9.0,26.0,75,0.00,,,0.00,Rainwise IP-100,2013-02-17 15:37:00,
2013-02-17 10:43:00,20.0,14.0,29.36,NNW,337,16.0,29.0,75,0.00,,,0.00,Rainwise IP-100,2013-02-17 15:43:00,
2013-02-17 10:48:00,20.0,14.0,29.36,NNW,337,12.0,31.0,75,0.00,,,0.00,Rainwise IP-100,2013-02-17 15:48:00,
2013-02-17 10:53:00,20.0,14.0,29.35,NNW,337,21.0,32.0,75,0.00,,,0.00,Rainwise IP-100,2013-02-17 15:53:00,
2013-02-17 10:58:00,21.0,14.0,29.34,WNW,292,16.0,28.0,74,0.00,,,0.00,Rainwise IP-100,2013-02-17 15:58:00,
2013-02-17 11:03:00,21.0,14.0,29.34,NW,315,16.0,25.0,74,0.00,,,0.00,Rainwise IP-100,2013-02-17 16:03:00,
2013-02-17 11:08:00,21.0,14.0,29.34,NW,315,17.0,28.0,74,0.00,,,0.00,Rainwise IP-100,2013-02-17 16:08:00,
2013-02-17 11:13:00,21.0,14.0,29.32,NW,315,17.0,31.0,75,0.00,,,0.00,Rainwise IP-100,2013-02-17 16:13:00,
2013-02-17 11:18:00,21.0,14.0,29.31,NNW,337,19.0,31.0,75,0.00,,,0.00,Rainwise IP-100,2013-02-17 16:18:00,
2013-02-17 11:23:00,21.0,14.0,29.30,WNW,292,13.0,34.0,75,0.00,,,0.00,Rainwise IP-100,2013-02-17 16:23:00,
2013-02-17 11:28:00,21.0,14.0,29.29,NW,315,28.0,34.0,75,0.00,,,0.00,Rainwise IP-100,2013-02-17 16:28:00,
2013-02-17 11:33:00,21.0,14.0,29.29,NNW,337,23.0,38.0,75,0.00,,,0.00,Rainwise IP-100,2013-02-17 16:33:00,
2013-02-17 11:38:00,20.0,14.0,29.27,NW,315,25.0,33.0,76,0.00,,,0.00,Rainwise IP-100,2013-02-17 16:38:00,
2013-02-17 11:43:00,20.0,14.0,29.27,NNW,337,23.0,32.0,76,0.00,,,0.00,Rainwise IP-100,2013-02-17 16:43:00,
2013-02-17 11:48:00,20.0,14.0,29.26,North,360,22.0,30.0,75,0.00,,,0.00,Rainwise IP-100,2013-02-17 16:48:00,
2013-02-17 11:53:00,20.0,14.0,29.26,NW,315,10.0,33.0,75,0.00,,,0.00,Rainwise IP-100,2013-02-17 16:53:00,
2013-02-17 11:58:00,20.0,14.0,29.24,WNW,292,10.0,33.0,75,0.30,,,0.05,Rainwise IP-100,2013-02-17 16:58:00,
2013-02-17 12:03:00,20.0,14.0,29.25,NW,315,18.0,27.0,75,0.30,,,0.05,Rainwise IP-100,2013-02-17 17:03:00,
2013-02-17 12:08:00,20.0,14.0,29.25,NW,315,18.0,37.0,75,0.00,,,0.05,Rainwise IP-100,2013-02-17 17:08:00,
2013-02-17 12:13:00,20.0,14.0,29.23,NNW,337,21.0,34.0,75,0.00,,,0.07,Rainwise IP-100,2013-02-17 17:13:00,
2013-02-17 12:18:00,20.0,14.0,29.23,NNW,337,19.0,38.0,75,0.12,,,0.07,Rainwise IP-100,2013-02-17 17:18:00,
2013-02-17 12:23:00,21.0,14.0,29.23,NW,315,26.0,34.0,75,0.12,,,0.07,Rainwise IP-100,2013-02-17 17:23:00,
2013-02-17 12:28:00,21.0,14.0,29.23,NNW,337,22.0,29.0,75,0.00,,,0.07,Rainwise IP-100,2013-02-17 17:28:00,
2013-02-17 12:35:00,21.0,14.0,29.20,NW,315,23.0,34.0,75,0.00,,,0.07,Rainwise IP-100,2013-02-17 17:35:00,
2013-02-17 12:40:00,21.0,14.0,29.21,WNW,292,16.0,34.0,75,0.00,,,0.07,Rainwise IP-100,2013-02-17 17:40:00,
2013-02-17 12:45:00,21.0,14.0,29.21,NW,315,19.0,33.0,75,0.00,,,0.07,Rainwise IP-100,2013-02-17 17:45:00,
2013-02-17 12:50:00,21.0,14.0,29.21,NNW,337,23.0,26.0,75,0.00,,,0.07,Rainwise IP-100,2013-02-17 17:50:00,
2013-02-17 12:55:00,21.0,14.0,29.20,NNW,337,16.0,38.0,75,0.00,,,0.08,Rainwise IP-100,2013-02-17 17:55:00,
2013-02-17 13:00:00,21.0,14.0,29.19,WNW,292,9.0,34.0,75,0.06,,,0.08,Rainwise IP-100,2013-02-17 18:00:00,
2013-02-17 13:05:00,21.0,14.0,29.18,WNW,292,13.0,27.0,75,0.06,,,0.08,Rainwise IP-100,2013-02-17 18:05:00,
2013-02-17 13:10:00,21.0,14.0,29.19,NW,315,9.0,26.0,74,0.00,,,0.08,Rainwise IP-100,2013-02-17 18:10:00,
2013-02-17 13:15:00,21.0,14.0,29.20,NW,315,13.0,25.0,74,0.00,,,0.08,Rainwise IP-100,2013-02-17 18:15:00,
2013-02-17 13:21:00,20.0,14.0,29.20,NW,315,3.0,23.0,75,0.00,,,0.08,Rainwise IP-100,2013-02-17 18:21:00,
2013-02-17 13:26:00,20.0,14.0,29.19,NW,315,6.0,25.0,75,0.00,,,0.08,Rainwise IP-100,2013-02-17 18:26:00,
2013-02-17 13:31:00,20.0,14.0,29.19,NW,315,12.0,25.0,75,0.00,,,0.08,Rainwise IP-100,2013-02-17 18:31:00,
2013-02-17 13:36:00,20.0,14.0,29.19,WNW,292,6.0,26.0,75,0.00,,,0.08,Rainwise IP-100,2013-02-17 18:36:00,
2013-02-17 13:41:00,20.0,14.0,29.19,NW,315,17.0,34.0,75,0.00,,,0.08,Rainwise IP-100,2013-02-17 18:41:00,
2013-02-17 13:46:00,19.0,14.0,29.19,NW,315,19.0,31.0,75,0.00,,,0.08,Rainwise IP-100,2013-02-17 18:46:00,
2013-02-17 13:51:00,19.0,14.0,29.18,WNW,292,12.0,28.0,75,0.00,,,0.08,Rainwise IP-100,2013-02-17 18:51:00,
2013-02-17 13:56:00,19.0,14.0,29.18,NNW,337,21.0,28.0,75,0.00,,,0.08,Rainwise IP-100,2013-02-17 18:56:00,
2013-02-17 14:01:00,19.0,14.0,29.17,WNW,292,15.0,31.0,75,0.00,,,0.08,Rainwise IP-100,2013-02-17 19:01:00,
2013-02-17 14:06:00,19.0,14.0,29.17,WNW,292,14.0,29.0,76,0.00,,,0.08,Rainwise IP-100,2013-02-17 19:06:00,
2013-02-17 14:11:00,19.0,14.0,29.18,WNW,292,8.0,37.0,75,0.00,,,0.08,Rainwise IP-100,2013-02-17 19:11:00,
2013-02-17 14:16:00,19.0,14.0,29.18,NW,315,15.0,26.0,75,0.00,,,0.08,Rainwise IP-100,2013-02-17 19:16:00,
2013-02-17 14:21:00,19.0,14.0,29.17,WNW,292,18.0,28.0,75,0.00,,,0.08,Rainwise IP-100,2013-02-17 19:21:00,
2013-02-17 14:26:00,19.0,14.0,29.18,WNW,292,11.0,34.0,75,0.00,,,0.08,Rainwise IP-100,2013-02-17 19:26:00,
2013-02-17 14:31:00,19.0,14.0,29.18,NW,315,10.0,28.0,75,0.00,,,0.08,Rainwise IP-100,2013-02-17 19:31:00,
2013-02-17 14:36:00,19.0,14.0,29.18,West,270,14.0,30.0,75,0.00,,,0.08,Rainwise IP-100,2013-02-17 19:36:00,
2013-02-17 14:41:00,19.0,14.0,29.18,NW,315,16.0,28.0,75,0.00,,,0.08,Rainwise IP-100,2013-02-17 19:41:00,
2013-02-17 14:46:00,19.0,14.0,29.18,NNW,337,28.0,34.0,75,0.00,,,0.08,Rainwise IP-100,2013-02-17 19:46:00,
2013-02-17 14:52:00,19.0,14.0,29.18,NW,315,21.0,26.0,75,0.00,,,0.08,Rainwise IP-100,2013-02-17 19:52:00,
2013-02-17 14:57:00,19.0,14.0,29.17,NW,315,19.0,34.0,75,0.00,,,0.08,Rainwise IP-100,2013-02-17 19:57:00,
2013-02-17 15:02:00,19.0,14.0,29.19,NW,315,18.0,25.0,75,0.00,,,0.08,Rainwise IP-100,2013-02-17 20:02:00,
2013-02-17 15:07:00,19.0,14.0,29.19,WNW,292,10.0,25.0,75,0.00,,,0.08,Rainwise IP-100,2013-02-17 20:07:00,
2013-02-17 15:12:00,19.0,14.0,29.19,WNW,292,15.0,30.0,75,0.00,,,0.08,Rainwise IP-100,2013-02-17 20:12:00,
2013-02-17 15:17:00,19.0,14.0,29.19,NW,315,15.0,24.0,75,0.00,,,0.08,Rainwise IP-100,2013-02-17 20:17:00,
2013-02-17 15:22:00,19.0,14.0,29.19,North,360,25.0,25.0,75,0.00,,,0.08,Rainwise IP-100,2013-02-17 20:22:00,
2013-02-17 15:27:00,19.0,14.0,29.19,WNW,292,7.0,27.0,75,0.00,,,0.08,Rainwise IP-100,2013-02-17 20:27:00,
2013-02-17 15:32:00,18.0,14.0,29.19,West,270,7.0,23.0,76,0.00,,,0.08,Rainwise IP-100,2013-02-17 20:32:00,
2013-02-17 15:37:00,18.0,14.0,29.19,NW,315,22.0,28.0,76,0.00,,,0.08,Rainwise IP-100,2013-02-17 20:37:00,
2013-02-17 15:42:00,18.0,14.0,29.19,NW,315,23.0,34.0,76,0.00,,,0.08,Rainwise IP-100,2013-02-17 20:42:00,
2013-02-17 15:47:00,18.0,14.0,29.19,WNW,292,13.0,34.0,76,0.00,,,0.08,Rainwise IP-100,2013-02-17 20:47:00,
2013-02-17 15:53:00,18.0,14.0,29.19,NNW,337,17.0,35.0,76,0.00,,,0.08,Rainwise IP-100,2013-02-17 20:53:00,
2013-02-17 15:58:00,18.0,14.0,29.20,WNW,292,18.0,28.0,76,0.00,,,0.08,Rainwise IP-100,2013-02-17 20:58:00,
2013-02-17 16:03:00,18.0,14.0,29.20,WNW,292,10.0,28.0,76,0.00,,,0.08,Rainwise IP-100,2013-02-17 21:03:00,
2013-02-17 16:08:00,18.0,14.0,29.19,WNW,292,16.0,29.0,76,0.00,,,0.08,Rainwise IP-100,2013-02-17 21:08:00,
2013-02-17 16:13:00,18.0,14.0,29.20,NW,315,32.0,35.0,76,0.00,,,0.08,Rainwise IP-100,2013-02-17 21:13:00,
2013-02-17 16:18:00,18.0,14.0,29.20,NW,315,27.0,32.0,76,0.00,,,0.08,Rainwise IP-100,2013-02-17 21:18:00,
2013-02-17 16:23:00,18.0,14.0,29.19,WNW,292,19.0,35.0,76,0.00,,,0.08,Rainwise IP-100,2013-02-17 21:23:00,
2013-02-17 16:28:00,18.0,14.0,29.20,NNW,337,18.0,28.0,76,0.00,,,0.08,Rainwise IP-100,2013-02-17 21:28:00,
2013-02-17 16:33:00,18.0,14.0,29.20,NNW,337,19.0,41.0,77,0.12,,,0.10,Rainwise IP-100,2013-02-17 21:33:00,
2013-02-17 16:38:00,18.0,14.0,29.20,NW,315,16.0,28.0,77,0.12,,,0.10,Rainwise IP-100,2013-02-17 21:38:00,
2013-02-17 16:43:00,18.0,14.0,29.21,NW,315,23.0,33.0,77,0.06,,,0.11,Rainwise IP-100,2013-02-17 21:43:00,
2013-02-17 16:48:00,18.0,14.0,29.21,NNW,337,26.0,45.0,77,0.06,,,0.11,Rainwise IP-100,2013-02-17 21:48:00,
2013-02-17 16:54:00,18.0,14.0,29.21,WNW,292,14.0,29.0,77,0.00,,,0.11,Rainwise IP-100,2013-02-17 21:54:00,
2013-02-17 16:59:00,18.0,14.0,29.20,NW,315,12.0,34.0,77,0.24,,,0.15,Rainwise IP-100,2013-02-17 21:59:00,
2013-02-17 17:04:00,18.0,14.0,29.21,NW,315,20.0,25.0,77,0.24,,,0.15,Rainwise IP-100,2013-02-17 22:04:00,
2013-02-17 17:09:00,19.0,14.0,29.20,NW,315,19.0,40.0,76,0.00,,,0.15,Rainwise IP-100,2013-02-17 22:09:00,
2013-02-17 17:14:00,19.0,14.0,29.21,NW,315,17.0,41.0,76,0.00,,,0.15,Rainwise IP-100,2013-02-17 22:14:00,
2013-02-17 17:19:00,19.0,14.0,29.22,NW,315,17.0,30.0,76,0.00,,,0.15,Rainwise IP-100,2013-02-17 22:19:00,
2013-02-17 17:24:00,19.0,14.0,29.23,NW,315,31.0,37.0,76,0.00,,,0.15,Rainwise IP-100,2013-02-17 22:24:00,
2013-02-17 17:29:00,19.0,14.0,29.23,WNW,292,7.0,33.0,76,0.00,,,0.15,Rainwise IP-100,2013-02-17 22:29:00,
2013-02-17 17:34:00,19.0,14.0,29.23,NNW,337,20.0,25.0,76,0.00,,,0.15,Rainwise IP-100,2013-02-17 22:34:00,
2013-02-17 17:39:00,19.0,14.0,29.22,WNW,292,9.0,28.0,76,0.00,,,0.15,Rainwise IP-100,2013-02-17 22:39:00,
2013-02-17 17:44:00,19.0,14.0,29.24,WNW,292,14.0,32.0,76,0.12,,,0.17,Rainwise IP-100,2013-02-17 22:44:00,
2013-02-17 17:49:00,19.0,14.0,29.23,NW,315,20.0,27.0,76,0.12,,,0.17,Rainwise IP-100,2013-02-17 22:49:00,
2013-02-17 17:54:00,18.0,14.0,29.24,West,270,10.0,31.0,77,0.00,,,0.17,Rainwise IP-100,2013-02-17 22:54:00,
2013-02-17 18:00:00,18.0,14.0,29.23,NW,315,14.0,29.0,77,0.00,,,0.17,Rainwise IP-100,2013-02-17 23:00:00,
2013-02-17 18:05:00,18.0,14.0,29.26,WNW,292,9.0,30.0,77,0.18,,,0.20,Rainwise IP-100,2013-02-17 23:05:00,
2013-02-17 18:10:00,18.0,14.0,29.25,NW,315,19.0,40.0,77,0.18,,,0.20,Rainwise IP-100,2013-02-17 23:10:00,
2013-02-17 18:15:00,18.0,14.0,29.26,WNW,292,13.0,31.0,77,0.00,,,0.20,Rainwise IP-100,2013-02-17 23:15:00,
2013-02-17 18:20:00,18.0,14.0,29.25,WNW,292,13.0,29.0,77,0.00,,,0.20,Rainwise IP-100,2013-02-17 23:20:00,
2013-02-17 18:25:00,18.0,14.0,29.24,WNW,292,19.0,31.0,77,0.00,,,0.20,Rainwise IP-100,2013-02-17 23:25:00,
2013-02-17 18:30:00,18.0,14.0,29.25,NNW,337,20.0,32.0,77,0.06,,,0.21,Rainwise IP-100,2013-02-17 23:30:00,
2013-02-17 18:35:00,17.0,14.0,29.27,WNW,292,13.0,32.0,77,0.06,,,0.21,Rainwise IP-100,2013-02-17 23:35:00,
2013-02-17 18:40:00,17.0,14.0,29.26,WNW,292,22.0,33.0,77,0.00,,,0.21,Rainwise IP-100,2013-02-17 23:40:00,
2013-02-17 18:45:00,17.0,14.0,29.28,NW,315,7.0,37.0,77,0.00,,,0.21,Rainwise IP-100,2013-02-17 23:45:00,
2013-02-17 18:50:00,17.0,14.0,29.28,WNW,292,14.0,29.0,77,0.00,,,0.21,Rainwise IP-100,2013-02-17 23:50:00,
2013-02-17 18:55:00,17.0,14.0,29.28,NNW,337,17.0,25.0,77,0.00,,,0.21,Rainwise IP-100,2013-02-17 23:55:00,
2013-02-17 19:00:00,17.0,14.0,29.27,NW,315,10.0,21.0,77,0.00,,,0.21,Rainwise IP-100,2013-02-18 00:00:00,
2013-02-17 19:05:00,17.0,14.0,29.28,WNW,292,5.0,22.0,77,0.00,,,0.21,Rainwise IP-100,2013-02-18 00:05:00,
2013-02-17 19:10:00,17.0,14.0,29.28,NW,315,10.0,19.0,77,0.00,,,0.21,Rainwise IP-100,2013-02-18 00:10:00,
2013-02-17 19:15:00,16.0,11.0,29.30,WNW,292,14.0,23.0,78,0.00,,,0.21,Rainwise IP-100,2013-02-18 00:15:00,
2013-02-17 19:20:00,17.0,14.0,29.28,NW,315,15.0,32.0,77,0.00,,,0.21,Rainwise IP-100,2013-02-18 00:20:00,
2013-02-17 19:25:00,17.0,14.0,29.29,WNW,292,13.0,27.0,77,0.00,,,0.21,Rainwise IP-100,2013-02-18 00:25:00,
2013-02-17 19:30:00,17.0,14.0,29.29,NW,315,20.0,28.0,77,0.18,,,0.24,Rainwise IP-100,2013-02-18 00:30:00,
2013-02-17 19:35:00,17.0,14.0,29.29,WNW,292,9.0,35.0,78,0.18,,,0.24,Rainwise IP-100,2013-02-18 00:35:00,
2013-02-17 19:40:00,17.0,14.0,29.30,WNW,292,14.0,24.0,78,0.00,,,0.24,Rainwise IP-100,2013-02-18 00:40:00,
2013-02-17 19:45:00,17.0,14.0,29.30,WNW,292,14.0,29.0,78,0.00,,,0.24,Rainwise IP-100,2013-02-18 00:45:00,
2013-02-17 19:50:00,17.0,14.0,29.29,WNW,292,7.0,31.0,78,0.00,,,0.24,Rainwise IP-100,2013-02-18 00:50:00,
2013-02-17 19:55:00,17.0,14.0,29.31,WNW,292,10.0,26.0,78,0.00,,,0.24,Rainwise IP-100,2013-02-18 00:55:00,
2013-02-17 20:02:00,17.0,14.0,29.30,WNW,292,15.0,32.0,78,0.18,,,0.27,Rainwise IP-100,2013-02-18 01:02:00,
2013-02-17 20:07:00,18.0,14.0,29.30,WNW,292,12.0,34.0,77,0.18,,,0.29,Rainwise IP-100,2013-02-18 01:07:00,
2013-02-17 20:12:00,18.0,14.0,29.31,West,270,16.0,28.0,77,0.12,,,0.29,Rainwise IP-100,2013-02-18 01:12:00,
2013-02-17 20:17:00,18.0,14.0,29.30,NW,315,13.0,30.0,77,0.24,,,0.31,Rainwise IP-100,2013-02-18 01:17:00,
2013-02-17 20:22:00,18.0,14.0,29.31,WNW,292,10.0,23.0,77,0.12,,,0.31,Rainwise IP-100,2013-02-18 01:22:00,
2013-02-17 20:27:00,18.0,14.0,29.31,NW,315,27.0,29.0,77,0.00,,,0.31,Rainwise IP-100,2013-02-18 01:27:00,
2013-02-17 20:32:00,18.0,14.0,29.33,WNW,292,11.0,34.0,77,0.00,,,0.31,Rainwise IP-100,2013-02-18 01:32:00,
2013-02-17 20:39:00,18.0,14.0,29.33,WNW,292,7.0,23.0,77,0.00,,,0.31,Rainwise IP-100,2013-02-18 01:39:00,
2013-02-17 20:44:00,18.0,14.0,29.34,WNW,292,10.0,24.0,77,0.00,,,0.31,Rainwise IP-100,2013-02-18 01:44:00,
2013-02-17 20:49:00,18.0,14.0,29.34,WNW,292,17.0,37.0,77,0.00,,,0.31,Rainwise IP-100,2013-02-18 01:49:00,
2013-02-17 20:54:00,18.0,14.0,29.33,WNW,292,12.0,30.0,77,0.00,,,0.31,Rainwise IP-100,2013-02-18 01:54:00,
2013-02-17 20:59:00,18.0,14.0,29.34,NW,315,6.0,38.0,77,0.12,,,0.33,Rainwise IP-100,2013-02-18 01:59:00,
2013-02-17 21:04:00,17.0,14.0,29.35,WNW,292,23.0,23.0,78,0.12,,,0.33,Rainwise IP-100,2013-02-18 02:04:00,
2013-02-17 21:10:00,18.0,14.0,29.35,WNW,292,8.0,28.0,77,0.00,,,0.33,Rainwise IP-100,2013-02-18 02:10:00,
2013-02-17 21:15:00,18.0,14.0,29.35,WNW,292,12.0,25.0,77,0.00,,,0.33,Rainwise IP-100,2013-02-18 02:15:00,
2013-02-17 21:20:00,17.0,14.0,29.36,WNW,292,7.0,21.0,78,0.00,,,0.33,Rainwise IP-100,2013-02-18 02:20:00,
2013-02-17 21:25:00,17.0,14.0,29.36,WNW,292,8.0,23.0,78,0.00,,,0.33,Rainwise IP-100,2013-02-18 02:25:00,
2013-02-17 21:30:00,17.0,14.0,29.36,WNW,292,5.0,24.0,78,0.00,,,0.33,Rainwise IP-100,2013-02-18 02:30:00,
2013-02-17 21:35:00,17.0,14.0,29.35,WNW,292,11.0,26.0,78,0.00,,,0.33,Rainwise IP-100,2013-02-18 02:35:00,
2013-02-17 21:40:00,17.0,14.0,29.36,West,270,8.0,24.0,78,0.00,,,0.33,Rainwise IP-100,2013-02-18 02:40:00,
2013-02-17 21:45:00,17.0,14.0,29.37,WNW,292,9.0,24.0,78,0.00,,,0.33,Rainwise IP-100,2013-02-18 02:45:00,
2013-02-17 21:50:00,17.0,14.0,29.37,WNW,292,12.0,21.0,78,0.00,,,0.33,Rainwise IP-100,2013-02-18 02:50:00,
2013-02-17 21:55:00,17.0,14.0,29.37,NW,315,14.0,27.0,78,0.00,,,0.33,Rainwise IP-100,2013-02-18 02:55:00,
2013-02-17 22:00:00,17.0,14.0,29.37,WNW,292,9.0,27.0,78,0.00,,,0.33,Rainwise IP-100,2013-02-18 03:00:00,
2013-02-17 22:05:00,17.0,14.0,29.38,WNW,292,1.0,19.0,78,0.00,,,0.33,Rainwise IP-100,2013-02-18 03:05:00,
2013-02-17 22:10:00,17.0,14.0,29.37,WNW,292,4.0,22.0,78,0.00,,,0.33,Rainwise IP-100,2013-02-18 03:10:00,
2013-02-17 22:15:00,17.0,14.0,29.38,WNW,292,9.0,25.0,78,0.00,,,0.33,Rainwise IP-100,2013-02-18 03:15:00,
2013-02-17 22:20:00,17.0,14.0,29.39,WNW,292,20.0,26.0,78,0.00,,,0.33,Rainwise IP-100,2013-02-18 03:20:00,
2013-02-17 22:25:00,17.0,14.0,29.39,WNW,292,10.0,23.0,78,0.00,,,0.33,Rainwise IP-100,2013-02-18 03:25:00,
2013-02-17 22:30:00,17.0,14.0,29.39,NNW,337,8.0,33.0,78,0.00,,,0.33,Rainwise IP-100,2013-02-18 03:30:00,
2013-02-17 22:35:00,17.0,14.0,29.39,NNW,337,8.0,20.0,78,0.00,,,0.33,Rainwise IP-100,2013-02-18 03:35:00,
2013-02-17 22:40:00,16.0,11.0,29.40,NNW,337,10.0,19.0,78,0.00,,,0.33,Rainwise IP-100,2013-02-18 03:40:00,
2013-02-17 22:45:00,16.0,11.0,29.39,WNW,292,11.0,32.0,78,0.00,,,0.33,Rainwise IP-100,2013-02-18 03:45:00,
2013-02-17 22:50:00,16.0,11.0,29.40,WNW,292,6.0,26.0,78,0.00,,,0.33,Rainwise IP-100,2013-02-18 03:50:00,
2013-02-17 22:55:00,16.0,11.0,29.41,WNW,292,10.0,18.0,78,0.00,,,0.33,Rainwise IP-100,2013-02-18 03:55:00,
2013-02-17 23:00:00,16.0,11.0,29.41,WNW,292,2.0,23.0,78,0.00,,,0.33,Rainwise IP-100,2013-02-18 04:00:00,
2013-02-17 23:06:00,16.0,11.0,29.41,WSW,247,6.0,26.0,78,0.00,,,0.33,Rainwise IP-100,2013-02-18 04:06:00,
2013-02-17 23:11:00,16.0,11.0,29.42,NW,315,15.0,23.0,78,0.00,,,0.33,Rainwise IP-100,2013-02-18 04:11:00,
2013-02-17 23:16:00,16.0,11.0,29.42,WNW,292,8.0,26.0,78,0.00,,,0.33,Rainwise IP-100,2013-02-18 04:16:00,
2013-02-17 23:21:00,16.0,11.0,29.43,WNW,292,12.0,25.0,78,0.00,,,0.33,Rainwise IP-100,2013-02-18 04:21:00,
2013-02-17 23:26:00,16.0,11.0,29.42,WNW,292,12.0,30.0,78,0.00,,,0.33,Rainwise IP-100,2013-02-18 04:26:00,
2013-02-17 23:31:00,15.0,11.0,29.44,WNW,292,9.0,24.0,79,0.00,,,0.33,Rainwise IP-100,2013-02-18 04:31:00,
2013-02-17 23:36:00,15.0,11.0,29.44,NW,315,25.0,25.0,79,0.00,,,0.33,Rainwise IP-100,2013-02-18 04:36:00,
2013-02-17 23:41:00,15.0,11.0,29.44,WNW,292,15.0,25.0,79,0.00,,,0.33,Rainwise IP-100,2013-02-18 04:41:00,
2013-02-17 23:46:00,15.0,11.0,29.45,WNW,292,14.0,28.0,79,0.00,,,0.33,Rainwise IP-100,2013-02-18 04:46:00,
2013-02-17 23:53:00,15.0,11.0,29.45,WNW,292,9.0,32.0,79,0.00,,,0.33,Rainwise IP-100,2013-02-18 04:53:00,
2013-02-17 23:58:00,16.0,11.0,29.46,WNW,292,23.0,24.0,78,0.00,,,0.33,Rainwise IP-100,2013-02-18 04:58:00,